This is the latest recevied weather packets stored in our database for station/object KK7MLS-13. If no packets are shown the sender has not sent any weather packets the latest 10 day(s).
| Time | Temp. | Humidity | Pressure | Rain* | Wind** | Luminosity | Snow |
|---|---|---|---|---|---|---|---|
| 1777566251 | 18.89° C | 50% | 1018.9 hPa | 0 mm | - | 406 W/m² | - |
| 1777565948 | 18.33° C | 50% | 1019.2 hPa | 0 mm | - | 271 W/m² | - |
| 1777565643 | 18.33° C | 53% | 1019.2 hPa | 0 mm | - | 383 W/m² | - |
| 1777565339 | 17.78° C | 51% | 1019.3 hPa | 0 mm | - | 371 W/m² | - |
| 1777565035 | 17.22° C | 53% | 1019.4 hPa | 0 mm | - | 304 W/m² | - |
| 1777564731 | 17.22° C | 52% | 1019.3 hPa | 0 mm | - | 304 W/m² | - |
| 1777564427 | 17.22° C | 54% | 1019.3 hPa | 0 mm | - | 262 W/m² | - |
| 1777564123 | 16.67° C | 57% | 1019.4 hPa | 0 mm | - | 297 W/m² | - |
| 1777563819 | 16.11° C | 58% | 1019.4 hPa | 0 mm | - | 306 W/m² | - |
| 1777563516 | 15.56° C | 59% | 1019.4 hPa | 0 mm | - | 235 W/m² | - |
| 1777563215 | 15.56° C | 59% | 1019.2 hPa | 0 mm | - | 179 W/m² | - |
| 1777562912 | 16.11° C | 60% | 1019.3 hPa | 0 mm | - | 231 W/m² | - |
| 1777562608 | 15.56° C | 59% | 1019.1 hPa | 0 mm | - | 234 W/m² | - |
| 1777562307 | 15° C | 66% | 1019.4 hPa | 0 mm | - | 218 W/m² | - |
| 1777562003 | 14.44° C | 66% | 1019.3 hPa | 0 mm | - | 185 W/m² | - |
| 1777561701 | 13.89° C | 64% | 1019.2 hPa | 0 mm | - | 170 W/m² | - |
| 1777561396 | 13.33° C | 70% | 1019.4 hPa | 0 mm | - | 193 W/m² | - |
| 1777561091 | 12.78° C | 73% | 1019.2 hPa | 0 mm | - | 176 W/m² | - |
| 1777560787 | 11.67° C | 73% | 1019.3 hPa | 0 mm | - | 147 W/m² | - |
| 1777560484 | 11.11° C | 79% | 1019.2 hPa | 0 mm | - | 52 W/m² | - |
| 1777560182 | 10.56° C | 83% | 1019.1 hPa | 0 mm | - | 59 W/m² | - |
| 1777559879 | 10.56° C | 84% | 1019.1 hPa | 0 mm | - | 41 W/m² | - |
| 1777559579 | 10.56° C | 84% | 1019.5 hPa | 0 mm | - | 37 W/m² | - |
| 1777559277 | 10° C | 84% | 1019.3 hPa | 0 mm | - | 34 W/m² | - |
| 1777558972 | 10° C | 84% | 1019.4 hPa | 0 mm | - | 31 W/m² | - |
* Rain latest hour (hover to see other rain measurements)
** Current wind speed in m/s (hover to see current wind gust speed)